Theta_e
351 357 356 358 364 360 360 360 352 352 350 343 342 346 348 348 349 353 343 344 345 349 346 344 346 348 352 349 352 349 351 350 350 343 344 349 351 353 353 352 354 353 353 351 351 347 352 352 351
349 357 358 362 362 362 364 355 354 350 345 341 342 344 345 349 342 342 343 344 346 349 345 345 347 350 348 345 349 351 349 350 351 347 347 351 351 349 352 352 351 352 352 351 353 353 352 352 346
355 358 361 366 361 360 359 350 349 347 343 343 347 342 344 346 342 342 341 346 348 349 346 345 348 349 345 343 346 347 347 346 344 346 349 353 352 351 353 354 352 353 352 353 351 352 352 350 343
356 358 361 364 360 355 349 345 346 346 345 343 341 343 341 342 341 339 341 348 347 350 349 344 351 349 347 345 347 349 353 348 349 346 345 351 352 351 352 352 352 351 351 353 353 350 351 352 343
356 365 370 354 358 354 349 345 345 350 349 343 340 341 344 339 338 340 343 347 347 351 348 347 351 344 348 349 351 349 351 349 348 349 352 350 352 350 349 351 351 352 352 352 352 348 350 352 346
367 368 362 353 354 355 354 352 350 351 345 344 342 340 341 338 341 342 346 346 350 349 347 350 351 347 350 350 348 348 348 348 344 347 350 350 349 352 353 352 353 349 353 353 353 353 344 343 344
366 370 352 351 353 356 351 348 353 352 348 346 344 347 342 339 342 343 345 347 347 346 346 349 350 353 347 349 352 347 346 346 345 348 348 348 350 352 353 352 352 353 353 352 352 352 345 343 342
363 368 349 352 355 354 352 348 350 350 348 342 342 348 346 342 344 344 345 348 347 349 345 342 348 349 351 350 353 342 344 345 342 344 343 348 345 347 354 350 350 352 352 354 353 348 343 343 341
362 372 353 353 354 353 348 351 347 348 346 342 343 344 342 343 343 343 346 347 345 345 347 350 345 347 349 343 340 338 343 343 343 343 344 343 344 343 346 345 346 350 353 353 352 344 341 340 339
361 350 353 349 349 349 349 349 348 348 346 344 346 343 343 343 343 344 348 348 348 348 349 350 350 348 353 348 341 337 338 337 340 341 340 343 344 347 347 349 348 348 350 353 352 344 341 338 347
349 348 349 349 349 350 349 349 347 346 348 347 346 345 343 342 343 344 346 348 348 347 348 349 349 348 351 354 339 345 342 347 349 350 349 345 349 348 347 350 346 342 351 349 345 339 338 340 344
351 350 349 351 351 352 352 348 349 348 348 345 343 341 340 341 343 346 346 348 348 347 345 346 349 350 351 353 348 350 350 350 349 350 350 351 349 349 348 349 347 346 343 345 346 341 343 340 332
351 353 351 351 351 351 352 353 351 349 346 343 342 341 341 342 343 346 346 345 347 345 345 347 347 346 350 350 350 350 348 350 348 350 349 350 350 349 349 349 348 347 349 347 349 347 348 346 346
347 351 347 345 353 352 352 353 355 348 344 343 343 342 342 342 343 344 345 344 343 346 347 345 347 348 352 349 349 349 349 350 350 349 351 351 350 349 349 348 348 347 347 348 347 347 347 347 345
350 353 347 347 354 352 345 344 350 348 344 344 344 342 342 341 342 341 341 343 345 346 346 346 349 349 348 348 350 351 350 349 349 350 350 350 350 349 347 346 346 347 347 348 346 346 346 346 345
352 352 356 350 350 350 350 350 345 345 346 345 345 344 343 342 341 341 341 342 345 344 347 346 351 348 345 346 348 352 351 351 350 350 347 348 349 348 346 344 346 350 348 345 344 343 346 348 349
355 353 351 349 347 351 352 352 348 347 347 345 345 345 344 343 342 343 342 342 344 344 346 348 350 349 346 348 346 347 353 350 351 350 348 351 352 351 349 349 349 350 351 345 350 351 349 349 348
358 354 349 352 349 349 353 356 355 351 346 346 345 344 345 345 343 344 343 344 345 345 345 345 349 350 348 352 351 351 352 346 347 351 349 351 353 352 350 350 348 346 347 350 352 351 353 352 351
344 347 347 347 346 349 349 358 356 353 347 348 345 344 344 344 342 344 343 344 347 347 346 347 346 350 349 353 352 352 351 349 351 352 351 353 352 353 352 352 353 349 353 352 352 352 353 353 352
346 346 347 349 348 348 345 361 355 349 348 348 347 345 345 343 342 344 345 345 349 349 349 348 348 349 350 352 351 351 350 350 351 353 352 352 350 354 354 351 353 353 352 353 351 351 349 349 347
346 344 344 349 346 342 341 360 359 353 353 351 350 347 345 344 343 345 345 346 349 351 351 350 349 348 349 350 352 353 352 352 352 351 352 355 355 353 355 353 351 351 352 351 349 349 349 351 350
336 344 337 337 337 341 339 341 349 352 355 346 343 349 346 344 344 345 345 346 348 351 352 350 353 349 350 354 355 354 343 352 353 352 351 349 351 354 350 355 354 352 353 350 350 349 351 350 346
330 333 333 334 333 331 338 334 350 350 354 348 345 350 348 345 345 345 346 346 348 351 351 350 355 351 355 359 356 352 349 352 352 352 350 345 347 353 354 353 355 353 352 350 349 349 349 349 347
326 326 326 327 329 330 332 334 351 350 353 350 350 343 349 347 346 345 347 347 348 353 353 350 352 357 354 352 357 354 354 355 355 353 349 345 344 350 350 354 354 352 350 351 351 349 348 344 342
324 320 324 329 330 330 328 331 332 347 346 345 345 346 344 347 347 346 347 347 348 351 354 356 353 358 356 354 358 356 352 355 354 351 350 350 349 350 353 353 352 351 351 350 348 345 342 338 336
322 320 321 327 329 328 323 327 344 347 348 345 343 343 342 346 348 348 348 348 348 351 352 358 356 358 357 355 353 360 354 353 354 352 351 352 351 352 352 351 351 351 349 347 344 338 339 337 333
323 321 320 319 320 320 323 329 342 341 339 340 339 344 344 342 348 349 348 349 349 352 352 354 357 358 359 358 356 357 360 357 353 351 351 353 351 353 350 351 351 349 346 343 339 338 333 334 334
325 323 318 317 323 326 325 325 327 342 340 339 336 338 341 344 349 350 350 350 351 353 354 355 358 359 359 362 360 357 361 359 356 356 355 354 351 350 351 351 350 347 345 341 336 336 334 330 327
323 321 321 317 317 320 321 324 330 342 342 338 339 339 341 342 351 350 351 351 352 354 355 360 361 363 363 364 363 362 360 361 357 358 355 354 350 350 351 350 347 345 341 335 337 335 333 329 324
328 329 323 322 324 321 318 321 324 328 332 337 337 335 338 340 350 351 349 352 352 354 356 361 363 365 365 364 365 365 362 362 360 356 354 353 352 352 350 347 345 341 336 336 335 332 328 323 325
Wind_Speed
13 12 11 3 0 5 5 6 13 13 7 5 6 7 8 4 3 4 18 17 13 11 11 15 14 14 15 16 13 14 12 12 10 11 11 11 10 10 11 10 8 8 6 8 8 7 9 11 13
17 12 5 3 3 7 8 13 11 9 11 11 12 13 7 3 5 10 14 19 16 15 16 16 15 15 16 16 14 13 11 9 9 9 9 8 6 8 8 8 7 7 7 8 9 9 9 11 11
13 14 2 2 1 8 8 12 13 14 15 11 5 10 9 12 10 20 23 24 19 16 15 16 17 17 16 15 11 10 11 9 8 8 8 7 6 7 7 6 5 7 8 8 10 10 10 10 11
1 6 4 1 12 3 11 15 16 15 10 12 13 9 7 13 22 22 26 24 23 19 16 19 18 19 16 15 12 9 9 9 8 8 8 8 6 6 6 4 5 7 9 9 11 11 10 11 9
9 3 3 4 15 8 11 17 17 8 11 16 12 9 9 23 23 26 29 25 18 27 20 19 17 19 15 14 12 9 9 9 9 8 8 7 6 6 7 6 6 6 8 10 11 10 10 10 9
4 4 3 6 18 15 11 7 19 13 14 21 16 12 7 14 23 30 28 24 31 23 22 21 18 17 15 13 12 10 10 9 8 8 8 7 7 7 8 8 7 8 9 10 10 10 10 10 8
6 4 11 12 11 8 8 11 11 12 18 12 20 7 6 19 29 31 28 31 26 25 24 21 18 17 15 14 13 12 9 9 8 9 8 8 9 8 9 9 8 8 9 10 9 9 9 9 7
3 4 12 10 9 5 6 13 20 21 15 22 19 7 12 18 31 24 31 32 32 30 25 23 20 18 17 16 13 12 10 9 8 7 9 9 8 8 10 10 10 10 9 10 9 8 8 7 6
8 5 5 12 10 5 10 15 15 16 18 13 15 9 25 31 26 22 17 28 27 27 27 25 21 19 17 15 12 11 11 10 8 7 8 6 7 4 7 9 10 11 11 10 9 8 8 7 5
4 3 11 11 8 6 11 11 10 9 20 17 13 21 32 30 27 23 21 22 27 28 26 28 23 21 19 14 14 13 11 9 10 9 9 9 5 9 8 10 10 10 12 11 9 7 7 6 4
7 7 13 13 10 13 9 10 10 12 8 16 23 25 26 29 25 20 22 24 28 24 24 26 22 19 19 17 15 15 11 10 9 8 9 14 8 10 14 12 8 10 11 11 10 10 9 8 5
4 14 13 11 8 8 10 13 8 10 8 20 26 26 21 21 16 22 18 24 25 20 19 17 22 22 22 21 18 14 11 12 11 12 12 10 11 12 15 13 7 8 9 9 8 7 6 7 10
9 14 14 23 7 8 6 6 2 14 16 23 24 23 20 16 19 28 29 31 33 29 26 20 20 13 21 24 19 17 12 13 12 13 13 11 7 10 12 9 9 11 11 8 15 11 12 11 5
11 10 12 23 23 8 5 4 5 7 20 24 24 22 19 19 23 27 30 31 32 32 33 24 23 25 30 20 17 15 11 7 11 16 13 9 10 11 10 10 7 12 10 12 8 9 5 11 8
14 3 12 11 16 4 6 1 2 2 18 21 20 19 20 18 25 19 25 31 34 32 35 35 33 35 24 20 16 12 9 10 10 13 13 11 10 10 10 11 12 8 10 11 8 6 7 9 10
10 4 6 5 5 5 5 9 4 7 11 19 20 17 17 15 17 24 27 30 35 30 36 38 33 31 23 19 17 14 12 12 7 12 9 9 8 6 7 11 11 11 11 8 7 6 6 9 10
2 4 1 11 7 8 8 7 8 5 8 15 16 16 15 14 14 24 28 27 33 33 30 36 32 28 24 19 16 17 11 13 11 9 7 7 10 2 4 8 11 11 8 7 4 5 8 10 12
8 5 2 8 6 9 12 14 4 9 10 14 14 13 13 14 11 23 29 27 34 33 30 29 25 30 26 24 19 16 15 15 14 13 14 12 12 4 4 6 7 11 7 4 6 6 6 8 10
13 12 18 24 23 18 19 17 16 14 12 14 12 13 13 13 10 25 30 26 28 34 34 31 26 32 29 28 23 19 15 13 13 15 19 16 11 9 7 8 7 6 6 6 6 6 6 7 6
17 10 7 14 26 17 21 16 18 18 15 11 13 12 13 11 12 18 24 29 31 35 35 35 31 33 30 28 25 18 17 16 18 20 17 11 11 10 7 9 8 6 4 5 5 3 3 3 2
10 10 11 13 24 8 4 8 19 3 6 9 1 6 14 16 15 17 17 25 28 31 37 36 32 34 29 25 22 18 18 10 9 18 13 13 13 10 8 6 4 6 4 3 2 2 3 3 3
10 21 9 8 3 2 2 2 2 4 6 7 20 10 17 19 16 15 18 21 26 35 39 38 34 34 29 28 23 21 22 15 14 17 12 12 12 10 8 5 5 5 4 4 4 4 2 3 4
7 8 6 8 8 5 5 5 5 6 5 8 18 11 19 19 18 20 20 27 29 36 38 39 33 35 34 23 27 21 19 18 17 16 15 13 12 9 9 4 4 4 3 5 3 4 4 2 3
10 9 10 7 3 5 9 5 6 7 11 14 20 17 14 18 19 22 30 31 29 35 36 40 38 37 35 30 23 24 22 20 20 19 17 14 14 13 12 10 7 6 5 6 5 4 4 1 2
7 7 5 5 4 7 11 4 8 22 16 16 22 13 15 16 20 22 21 21 28 35 35 37 40 36 36 31 28 27 26 20 22 21 19 16 17 15 15 14 11 8 7 8 6 4 3 2 2
7 4 5 4 4 7 8 6 4 13 15 12 12 8 10 12 14 23 24 27 31 36 37 35 38 35 38 36 35 27 25 24 24 23 21 22 23 21 19 16 12 10 9 7 6 5 7 2 2
6 3 7 2 5 4 4 6 5 5 7 14 13 12 19 16 16 22 24 30 33 35 39 37 39 37 38 38 36 34 28 25 25 23 22 23 24 24 21 17 16 11 11 8 7 8 5 6 3
2 4 6 4 3 6 7 8 3 6 6 5 10 4 11 19 22 19 22 26 34 35 40 38 43 41 42 37 37 36 30 28 25 23 24 20 22 23 24 22 17 15 12 10 9 12 10 9 8
5 2 3 4 5 3 3 7 2 5 13 7 19 22 9 12 21 19 16 26 35 32 38 37 39 36 36 35 34 31 31 30 27 24 24 22 25 27 26 22 18 14 11 10 11 13 12 9 6
6 9 2 5 9 5 5 8 7 8 5 14 23 15 9 6 17 19 17 22 30 29 34 37 36 36 38 38 34 31 31 32 31 26 26 23 26 26 24 20 17 13 12 11 12 15 11 11 11
Wind_Direction
179 181 186 248 256 83 72 80 101 115 114 110 129 95 87 65 120 162 148 157 155 141 144 133 135 146 141 133 131 124 124 118 122 120 117 113 105 104 104 107 105 105 108 101 99 105 97 95 102
181 173 219 295 52 83 74 114 103 109 113 127 115 131 121 71 87 115 150 176 160 142 151 141 142 148 146 135 132 129 127 125 136 122 124 125 121 111 111 116 113 99 105 111 109 109 109 111 109
183 195 226 249 268 107 117 123 118 117 139 154 134 122 110 135 134 148 158 157 154 158 149 145 138 141 147 136 141 137 128 124 120 121 132 134 136 120 124 122 104 105 112 118 114 113 120 120 120
186 222 261 273 112 181 130 130 132 138 145 131 107 83 79 148 150 164 167 162 163 167 162 154 149 138 137 135 140 134 129 124 126 130 136 141 143 137 133 138 132 130 126 128 120 122 126 128 134
166 247 205 151 133 128 92 140 150 129 150 107 104 99 111 147 150 157 167 164 169 167 166 158 155 140 139 144 143 146 141 139 138 136 145 140 152 157 150 151 138 140 141 135 130 129 134 137 140
287 273 141 97 86 102 94 287 113 156 126 109 103 112 156 184 165 173 168 173 167 169 165 159 156 146 149 147 148 147 152 140 136 144 156 164 160 157 152 150 153 149 142 139 142 141 140 140 143
285 282 116 109 98 122 183 166 171 163 147 136 141 108 141 160 169 180 182 166 162 163 162 158 157 153 152 155 159 155 151 145 146 164 163 168 168 164 161 159 162 163 152 150 152 150 150 143 135
278 286 99 102 99 86 181 179 153 144 146 137 140 148 161 163 172 178 145 153 151 160 162 161 164 162 161 168 163 148 162 159 155 177 178 179 164 168 171 174 168 166 161 159 163 158 155 145 125
202 282 69 105 111 178 121 95 103 130 137 161 179 131 153 162 168 154 144 146 155 166 161 162 166 169 170 167 163 160 168 166 169 186 175 164 180 198 187 180 173 176 169 166 173 165 158 149 130
190 177 114 119 147 139 139 116 133 138 155 164 130 130 150 161 165 171 148 153 164 170 170 170 174 173 172 171 179 165 169 165 172 182 175 173 185 213 226 197 193 187 177 176 178 173 166 160 158
273 88 96 108 121 116 120 134 162 159 149 151 147 147 155 166 173 165 156 151 174 190 161 177 179 177 180 181 175 177 174 181 183 195 217 208 217 215 208 208 209 189 190 190 196 198 199 183 168
22 13 115 118 126 149 169 156 167 174 176 146 147 150 157 165 173 167 165 163 167 179 184 166 172 177 192 194 189 174 194 194 200 204 218 210 224 206 202 207 201 188 202 206 211 219 231 236 237
26 46 2 25 305 124 104 57 204 122 130 135 144 152 160 170 174 177 181 178 179 186 191 168 180 209 185 197 197 185 190 207 216 212 218 212 191 186 190 197 202 204 216 224 233 229 247 241 265
324 71 66 23 302 36 48 63 53 127 136 140 149 158 166 182 190 190 182 183 182 186 195 184 180 182 180 162 154 176 182 175 212 213 215 218 221 217 209 187 173 207 201 227 222 209 227 209 251
349 334 100 187 248 278 342 67 139 344 146 150 155 164 175 191 192 184 181 178 178 180 179 175 175 183 178 180 165 168 196 200 205 195 206 224 255 240 213 201 201 234 207 221 216 222 246 262 280
294 331 9 252 303 284 64 276 253 234 165 159 162 170 178 193 189 184 190 178 173 173 173 178 178 183 185 186 175 180 199 196 233 219 256 220 241 215 210 209 197 203 220 228 236 254 273 269 270
287 297 184 297 215 217 199 245 230 229 183 156 164 174 179 193 192 183 191 179 178 178 170 179 176 178 181 177 177 194 211 206 157 210 238 210 211 136 181 187 185 200 215 230 226 260 261 269 272
215 327 147 259 283 223 209 256 221 192 172 164 162 173 185 190 196 180 184 172 176 181 188 188 171 179 178 178 184 191 210 220 209 222 189 205 189 161 162 174 179 208 210 180 217 244 264 272 294
123 106 307 312 290 271 242 206 183 188 175 165 173 173 186 189 193 176 180 186 175 179 180 182 183 176 174 180 180 191 203 213 209 204 183 189 175 180 183 172 191 195 220 229 227 222 236 263 288
144 175 190 209 263 261 268 170 179 176 178 163 173 175 190 191 186 174 177 186 165 169 175 181 182 178 178 185 193 195 206 222 226 182 178 177 169 172 189 190 194 210 240 206 201 212 262 292 279
188 203 248 212 239 253 287 145 157 67 95 122 63 246 188 192 186 173 178 177 165 169 175 178 180 182 186 191 190 185 176 180 186 187 177 173 173 174 178 190 190 185 211 206 228 228 247 315 320
223 222 287 319 23 272 38 217 129 180 175 169 219 216 203 188 183 173 175 172 169 168 172 175 181 184 186 192 185 185 182 172 188 185 181 185 192 179 180 185 205 169 171 170 175 206 197 251 293
277 298 331 326 330 16 300 80 251 184 187 196 244 234 218 185 180 178 177 177 173 172 174 177 174 182 184 176 188 191 185 196 196 190 189 182 179 192 191 177 179 171 193 173 183 196 212 225 7
341 352 337 322 352 339 261 172 246 190 191 210 231 235 213 186 182 179 176 176 173 169 172 180 181 183 189 195 189 194 190 196 180 181 184 185 191 200 191 175 188 171 165 171 189 185 253 272 271
346 351 328 334 340 233 259 292 229 199 192 198 214 230 273 197 182 173 176 177 175 173 171 175 180 182 191 195 194 198 199 192 189 183 191 190 194 194 181 189 186 187 184 179 188 189 204 223 278
245 188 161 287 275 268 327 296 185 166 191 182 183 235 180 241 197 177 178 179 182 176 175 174 180 182 191 196 199 199 200 199 195 189 198 201 192 196 189 189 188 185 190 195 183 168 157 140 50
252 281 237 300 290 7 283 347 8 84 168 207 187 191 219 218 220 179 179 180 185 176 177 177 180 185 187 195 200 200 202 200 192 198 204 209 204 193 186 180 184 184 174 176 177 177 149 124 146
118 234 358 352 2 325 307 298 207 225 210 358 40 262 229 200 204 177 180 179 183 176 177 179 181 183 189 192 198 203 201 200 196 203 202 200 200 192 180 183 190 191 195 190 178 163 154 153 119
318 270 239 166 149 198 296 286 163 194 188 172 84 34 330 169 177 178 173 176 179 173 174 175 178 179 180 187 192 197 198 200 202 201 193 192 187 183 183 186 189 192 184 185 183 175 172 171 135
31 11 36 112 291 230 168 273 315 4 28 149 149 166 188 91 180 177 178 171 174 169 172 172 174 177 181 185 188 192 193 197 200 199 196 189 181 182 180 183 183 181 175 180 171 168 169 158 146